| time (UTC) | temp F | wind direction | speed knots | gust knots | rain 1hr in | rain 24hr in | rain mn in | humidity % | barometer mb |
| 20260510105159 | 68 | 175 | 2.6 | 6.1 | 0.00 | 0.01 | 0.00 | 86 | 1012.1 |
| 20260510104656 | 68 | 155 | 2.6 | 6.1 | 0.00 | 0.01 | 0.00 | 86 | 1012.1 |
| 20260510104153 | 68 | 172 | 0.0 | 7.0 | 0.00 | 0.01 | 0.00 | 86 | 1012.1 |
| 20260510103141 | 68 | 139 | 4.3 | 7.0 | 0.00 | 0.01 | 0.00 | 86 | 1012.1 |
| 20260510102655 | 69 | 157 | 3.5 | 7.8 | 0.00 | 0.01 | 0.00 | 86 | 1012.2 |
| 20260510102223 | 69 | 151 | 5.2 | 7.8 | 0.00 | 0.01 | 0.00 | 86 | 1012.2 |
| 20260510101723 | 69 | 157 | 4.3 | 7.8 | 0.00 | 0.01 | 0.00 | 87 | 1012.2 |
| 20260510101212 | 68 | 148 | 4.3 | 7.8 | 0.00 | 0.01 | 0.00 | 87 | 1012.2 |
| 20260510100627 | 68 | 164 | 3.5 | 7.0 | 0.00 | 0.01 | 0.00 | 87 | 1012.2 |
| 20260510100139 | 68 | 136 | 1.7 | 4.3 | 0.00 | 0.01 | 0.00 | 87 | 1012.3 |
| 20260510095653 | 69 | 142 | 0.9 | 4.3 | 0.00 | 0.01 | 0.00 | 87 | 1012.4 |
| 20260510094643 | 69 | 142 | 0.9 | 1.7 | 0.00 | 0.01 | 0.00 | 86 | 1012.4 |
| 20260510094154 | 69 | 142 | 0.0 | 0.0 | 0.00 | 0.01 | 0.00 | 86 | 1012.4 |
| 20260510093146 | 69 | 142 | 0.0 | 0.0 | 0.00 | 0.01 | 0.00 | 85 | 1012.4 |
| 20260510092708 | 70 | 142 | 0.0 | 0.0 | 0.00 | 0.01 | 0.00 | 85 | 1012.4 |
| 20260510092131 | 70 | 142 | 0.0 | 0.0 | 0.00 | 0.01 | 0.00 | 84 | 1012.2 |
| 20260510091644 | 70 | 142 | 0.0 | 0.0 | 0.00 | 0.01 | 0.00 | 84 | 1012.2 |
| 20260510091211 | 70 | 142 | 0.0 | 0.0 | 0.00 | 0.01 | 0.00 | 84 | 1012.2 |
| 20260510090705 | 70 | 142 | 0.0 | 1.7 | 0.00 | 0.01 | 0.00 | 83 | 1012.2 |
| 20260510090220 | 71 | 142 | 0.0 | 1.7 | 0.00 | 0.01 | 0.00 | 83 | 1012.2 |
| 20260510085641 | 71 | 141 | 0.0 | 3.5 | 0.00 | 0.01 | 0.00 | 83 | 1012.3 |
| 20260510085158 | 71 | 141 | 0.0 | 5.2 | 0.00 | 0.01 | 0.00 | 84 | 1012.2 |
| 20260510084147 | 71 | 136 | 1.7 | 5.2 | 0.00 | 0.01 | 0.00 | 84 | 1012.1 |
| 20260510083702 | 71 | 138 | 1.7 | 5.2 | 0.00 | 0.01 | 0.00 | 84 | 1012.1 |
| 20260510083207 | 71 | 106 | 2.6 | 5.2 | 0.00 | 0.01 | 0.00 | 84 | 1012.2 |
| 20260510082723 | 71 | 109 | 0.9 | 5.2 | 0.00 | 0.01 | 0.00 | 84 | 1012.1 |
| 20260510082132 | 71 | 139 | 2.6 | 5.2 | 0.00 | 0.01 | 0.00 | 84 | 1012.0 |
| 20260510081652 | 71 | 118 | 2.6 | 6.1 | 0.00 | 0.01 | 0.00 | 83 | 1012.1 |
| 20260510080741 | 71 | 117 | 2.6 | 4.3 | 0.00 | 0.01 | 0.00 | 83 | 1012.0 |
| 20260510080243 | 71 | 155 | 1.7 | 2.6 | 0.00 | 0.01 | 0.00 | 83 | 1011.9 |
| 20260510075638 | 72 | 156 | 0.9 | 1.7 | 0.00 | 0.01 | 0.00 | 83 | 1011.9 |
| 20260510075156 | 72 | 156 | 0.0 | 0.9 | 0.00 | 0.01 | 0.00 | 82 | 1012.0 |
| 20260510074219 | 72 | 156 | 0.0 | 1.7 | 0.00 | 0.01 | 0.00 | 82 | 1011.9 |
| 20260510073626 | 72 | 156 | 0.0 | 3.5 | 0.00 | 0.01 | 0.00 | 82 | 1011.9 |
| 20260510073230 | 72 | 156 | 0.9 | 3.5 | 0.00 | 0.01 | 0.00 | 81 | 1012.0 |
| 20260510072707 | 72 | 156 | 1.7 | 3.5 | 0.00 | 0.01 | 0.00 | 81 | 1012.0 |
| 20260510072201 | 73 | 156 | 0.9 | 1.7 | 0.00 | 0.01 | 0.00 | 81 | 1012.1 |
| 20260510071709 | 73 | 157 | 0.9 | 2.6 | 0.00 | 0.01 | 0.00 | 81 | 1012.1 |
| 20260510071203 | 73 | 157 | 0.0 | 3.5 | 0.00 | 0.01 | 0.00 | 81 | 1012.0 |
| 20260510070716 | 73 | 156 | 0.9 | 4.3 | 0.00 | 0.01 | 0.00 | 81 | 1011.9 |
| 20260510070125 | 73 | 157 | 1.7 | 4.3 | 0.00 | 0.01 | 0.00 | 81 | 1012.0 |
| 20260510065634 | 73 | 157 | 1.7 | 5.2 | 0.00 | 0.01 | 0.00 | 81 | 1012.0 |
| 20260510065138 | 73 | 167 | 2.6 | 5.2 | 0.00 | 0.01 | 0.00 | 81 | 1012.0 |
| 20260510064625 | 73 | 160 | 2.6 | 6.1 | 0.00 | 0.01 | 0.00 | 82 | 1012.0 |
| 20260510064125 | 72 | 147 | 1.7 | 4.3 | 0.00 | 0.01 | 0.00 | 82 | 1012.0 |
| 20260510063633 | 73 | 169 | 1.7 | 4.3 | 0.00 | 0.01 | 0.00 | 82 | 1012.0 |
| 20260510063142 | 73 | 157 | 1.7 | 3.5 | 0.00 | 0.01 | 0.00 | 82 | 1012.0 |
| 20260510062648 | 73 | 158 | 0.9 | 1.7 | 0.00 | 0.01 | 0.00 | 81 | 1012.0 |
| 20260510062126 | 74 | 158 | 0.0 | 0.0 | 0.00 | 0.01 | 0.00 | 80 | 1011.9 |
| 20260510061635 | 74 | 158 | 0.0 | 0.0 | 0.00 | 0.01 | 0.00 | 80 | 1011.9 |
| 20260510061144 | 74 | 158 | 0.0 | 0.9 | 0.00 | 0.01 | 0.00 | 80 | 1012.0 |
| 20260510060623 | 74 | 158 | 0.0 | 3.5 | 0.00 | 0.01 | 0.00 | 79 | 1012.1 |
| 20260510060133 | 74 | 158 | 1.7 | 4.3 | 0.00 | 0.01 | 0.00 | 79 | 1012.1 |
| 20260510055701 | 75 | 148 | 1.7 | 6.1 | 0.00 | 0.01 | 0.00 | 79 | 1012.0 |
| 20260510055128 | 75 | 140 | 3.5 | 6.1 | 0.00 | 0.01 | 0.00 | 79 | 1012.0 |
| 20260510054625 | 75 | 119 | 3.5 | 6.1 | 0.00 | 0.01 | 0.00 | 79 | 1012.0 |
| 20260510054134 | 75 | 108 | 3.5 | 7.0 | 0.00 | 0.01 | 0.00 | 79 | 1011.9 |
| 20260510053623 | 75 | 134 | 3.5 | 7.0 | 0.00 | 0.01 | 0.00 | 78 | 1011.9 |
| 20260510053132 | 75 | 146 | 3.5 | 7.0 | 0.00 | 0.01 | 0.00 | 78 | 1012.0 |
| 20260510052627 | 75 | 130 | 2.6 | 6.1 | 0.00 | 0.01 | 0.00 | 78 | 1011.9 |
| 20260510052136 | 75 | 146 | 3.5 | 6.1 | 0.00 | 0.01 | 0.00 | 78 | 1011.9 |
| 20260510051625 | 75 | 142 | 1.7 | 5.2 | 0.00 | 0.01 | 0.00 | 78 | 1011.8 |
| 20260510051125 | 75 | 151 | 1.7 | 5.2 | 0.00 | 0.01 | 0.00 | 78 | 1011.8 |
| 20260510050634 | 75 | 117 | 2.6 | 6.1 | 0.00 | 0.01 | 0.00 | 78 | 1011.7 |
| 20260510050142 | 75 | 138 | 2.6 | 6.1 | 0.00 | 0.01 | 0.00 | 78 | 1011.8 |
| 20260510045648 | 75 | 139 | 2.6 | 5.2 | 0.00 | 0.01 | 0.01 | 78 | 1011.7 |
| 20260510045202 | 75 | 139 | 2.6 | 6.1 | 0.00 | 0.01 | 0.01 | 78 | 1011.6 |
| 20260510044656 | 75 | 145 | 2.6 | 6.1 | 0.00 | 0.01 | 0.01 | 79 | 1011.5 |
| 20260510044221 | 75 | 140 | 3.5 | 6.1 | 0.00 | 0.01 | 0.01 | 79 | 1011.5 |
| 20260510043638 | 74 | 132 | 1.7 | 6.1 | 0.00 | 0.01 | 0.01 | 79 | 1011.6 |
| 20260510043202 | 74 | 129 | 1.7 | 4.3 | 0.00 | 0.01 | 0.01 | 79 | 1011.6 |
| 20260510042657 | 74 | 117 | 0.0 | 1.7 | 0.00 | 0.01 | 0.01 | 78 | 1011.5 |
| 20260510042211 | 75 | 130 | 0.0 | 1.7 | 0.00 | 0.01 | 0.01 | 78 | 1011.6 |
| 20260510041633 | 75 | 130 | 0.9 | 1.7 | 0.00 | 0.01 | 0.01 | 78 | 1011.5 |
| 20260510041152 | 75 | 130 | 0.0 | 1.7 | 0.00 | 0.01 | 0.01 | 78 | 1011.4 |
| 20260510040134 | 75 | 128 | 0.0 | 3.5 | 0.00 | 0.01 | 0.01 | 77 | 1011.2 |
| 20260510035647 | 75 | 128 | 0.9 | 3.5 | 0.00 | 0.01 | 0.01 | 77 | 1011.2 |
| 20260510035204 | 75 | 128 | 0.9 | 3.5 | 0.00 | 0.01 | 0.01 | 77 | 1011.2 |
| 20260510034703 | 75 | 155 | 0.0 | 0.9 | 0.00 | 0.01 | 0.01 | 77 | 1011.3 |
| 20260510034201 | 75 | 155 | 0.0 | 1.7 | 0.00 | 0.01 | 0.01 | 77 | 1011.2 |
| 20260510033715 | 76 | 155 | 0.9 | 1.7 | 0.00 | 0.01 | 0.01 | 77 | 1011.2 |
| 20260510033212 | 76 | 155 | 0.0 | 0.9 | 0.00 | 0.01 | 0.01 | 76 | 1011.2 |
| 20260510032705 | 76 | 155 | 0.0 | 0.9 | 0.00 | 0.01 | 0.01 | 75 | 1011.1 |
| 20260510032150 | 77 | 155 | 0.0 | 0.0 | 0.00 | 0.01 | 0.01 | 75 | 1011.1 |
| 20260510031648 | 77 | 155 | 0.0 | 0.0 | 0.00 | 0.01 | 0.01 | 74 | 1011.1 |
| 20260510031158 | 77 | 155 | 0.0 | 0.0 | 0.00 | 0.01 | 0.01 | 73 | 1011.0 |
| 20260510030702 | 78 | 156 | 0.0 | 3.5 | 0.00 | 0.01 | 0.01 | 72 | 1011.0 |
| 20260510030219 | 78 | 156 | 0.0 | 3.5 | 0.00 | 0.01 | 0.01 | 72 | 1010.9 |
| 20260510025630 | 78 | 140 | 0.0 | 3.5 | 0.00 | 0.01 | 0.01 | 72 | 1010.8 |
| 20260510025151 | 78 | 140 | 0.9 | 4.3 | 0.00 | 0.01 | 0.01 | 72 | 1010.8 |
| 20260510024708 | 78 | 140 | 0.9 | 4.3 | 0.00 | 0.01 | 0.01 | 72 | 1010.8 |
| 20260510024230 | 79 | 132 | 2.6 | 6.1 | 0.00 | 0.01 | 0.01 | 71 | 1010.7 |
| 20260510023700 | 79 | 118 | 2.6 | 6.1 | 0.00 | 0.01 | 0.01 | 71 | 1010.6 |
| 20260510023208 | 79 | 107 | 1.7 | 5.2 | 0.00 | 0.01 | 0.01 | 71 | 1010.7 |
| 20260510022722 | 79 | 90 | 3.5 | 6.1 | 0.00 | 0.01 | 0.01 | 71 | 1010.7 |
| 20260510022135 | 79 | 81 | 3.5 | 7.0 | 0.00 | 0.01 | 0.01 | 70 | 1010.5 |
| 20260510021647 | 79 | 98 | 5.2 | 7.0 | 0.00 | 0.01 | 0.01 | 70 | 1010.4 |
| 20260510021141 | 79 | 83 | 3.5 | 7.8 | 0.00 | 0.01 | 0.01 | 69 | 1010.4 |
| 20260510020706 | 79 | 100 | 2.6 | 7.8 | 0.00 | 0.01 | 0.01 | 69 | 1010.4 |
| 20260510020220 | 79 | 88 | 2.6 | 7.0 | 0.00 | 0.01 | 0.01 | 68 | 1010.4 |
| 20260510015738 | 80 | 105 | 0.9 | 7.0 | 0.00 | 0.01 | 0.01 | 67 | 1010.2 |
| 20260510015128 | 80 | 109 | 1.7 | 8.7 | 0.00 | 0.01 | 0.01 | 66 | 1010.2 |
| 20260510014648 | 80 | 102 | 3.5 | 7.8 | 0.00 | 0.01 | 0.01 | 65 | 1010.2 |
| 20260510014207 | 80 | 101 | 3.5 | 7.8 | 0.00 | 0.01 | 0.01 | 64 | 1010.1 |
| 20260510013719 | 80 | 157 | 3.5 | 7.8 | 0.00 | 0.01 | 0.01 | 63 | 1010.0 |
| 20260510013135 | 81 | 106 | 4.3 | 7.8 | 0.00 | 0.01 | 0.01 | 61 | 1009.9 |
| 20260510012700 | 81 | 102 | 3.5 | 7.8 | 0.00 | 0.01 | 0.01 | 61 | 1009.9 |
| 20260510012215 | 81 | 69 | 5.2 | 9.6 | 0.00 | 0.01 | 0.01 | 61 | 1009.8 |
| 20260510011717 | 82 | 75 | 6.1 | 9.6 | 0.00 | 0.01 | 0.01 | 62 | 1009.8 |
| 20260510011213 | 82 | 90 | 4.3 | 8.7 | 0.00 | 0.01 | 0.01 | 62 | 1009.7 |
| 20260510010625 | 82 | 124 | 4.3 | 8.7 | 0.00 | 0.01 | 0.01 | 61 | 1009.6 |
| 20260510010143 | 82 | 137 | 2.6 | 7.8 | 0.00 | 0.01 | 0.01 | 61 | 1009.4 |
| 20260510005221 | 83 | 98 | 5.2 | 8.7 | 0.00 | 0.01 | 0.01 | 62 | 1009.2 |
| 20260510004721 | 83 | 101 | 4.3 | 7.8 | 0.00 | 0.01 | 0.01 | 61 | 1009.2 |
| 20260510004128 | 84 | 97 | 4.3 | 8.7 | 0.00 | 0.01 | 0.01 | 60 | 1009.0 |
| 20260510003653 | 84 | 103 | 3.5 | 8.7 | 0.00 | 0.01 | 0.01 | 59 | 1009.0 |
| 20260510002702 | 84 | 78 | 4.3 | 8.7 | 0.00 | 0.01 | 0.01 | 56 | 1009.0 |
| 20260510002156 | 84 | 100 | 2.6 | 8.7 | 0.00 | 0.01 | 0.01 | 54 | 1008.9 |
| 20260510001653 | 84 | 101 | 3.5 | 7.8 | 0.00 | 0.01 | 0.01 | 52 | 1008.9 |
| 20260510001130 | 84 | 101 | 4.3 | 8.7 | 0.00 | 0.01 | 0.01 | 54 | 1008.9 |
| 20260510000628 | 84 | 88 | 5.2 | 8.7 | 0.00 | 0.01 | 0.01 | 60 | 1008.9 |
| 20260510000148 | 84 | 115 | 2.6 | 5.2 | 0.00 | 0.01 | 0.01 | 61 | 1008.7 |
| 20260509235626 | 84 | 107 | 0.0 | 4.3 | 0.00 | 0.01 | 0.01 | 61 | 1008.5 |
| 20260509235142 | 84 | 102 | 1.7 | 4.3 | 0.00 | 0.01 | 0.01 | 61 | 1008.6 |
| 20260509234637 | 84 | 107 | 1.7 | 4.3 | 0.00 | 0.01 | 0.01 | 60 | 1008.6 |
| 20260509234158 | 85 | 81 | 1.7 | 5.2 | 0.00 | 0.01 | 0.01 | 59 | 1008.5 |
| 20260509233700 | 85 | 80 | 2.6 | 6.1 | 0.00 | 0.01 | 0.01 | 59 | 1008.5 |
| 20260509233216 | 85 | 110 | 3.5 | 7.0 | 0.00 | 0.01 | 0.01 | 59 | 1008.6 |
| 20260509232722 | 85 | 137 | 3.5 | 10.4 | 0.00 | 0.01 | 0.01 | 58 | 1008.7 |
| 20260509232131 | 86 | 107 | 5.2 | 10.4 | 0.00 | 0.01 | 0.01 | 58 | 1008.6 |
| 20260509231652 | 86 | 107 | 6.1 | 10.4 | 0.00 | 0.01 | 0.01 | 57 | 1008.6 |
| 20260509231149 | 86 | 127 | 5.2 | 11.3 | 0.00 | 0.01 | 0.01 | 57 | 1008.6 |
| 20260509230705 | 86 | 98 | 5.2 | 13.0 | 0.00 | 0.01 | 0.01 | 57 | 1008.8 |
| 20260509230207 | 86 | 101 | 7.0 | 13.0 | 0.00 | 0.01 | 0.01 | 55 | 1008.9 |
| 20260509225722 | 86 | 96 | 7.0 | 13.0 | 0.00 | 0.01 | 0.01 | 56 | 1008.6 |
| 20260509225222 | 87 | 91 | 6.1 | 15.6 | 0.00 | 0.01 | 0.01 | 55 | 1008.6 |
| 20260509224631 | 89 | 93 | 7.8 | 15.6 | 0.00 | 0.01 | 0.01 | 53 | 1008.7 |
| 20260509224139 | 90 | 88 | 6.1 | 9.6 | 0.00 | 0.01 | 0.01 | 51 | 1008.8 |
| 20260509223136 | 91 | 225 | 0.9 | 1.7 | 0.00 | 0.01 | 0.01 | 49 | 1008.7 |
| 20260509222650 | 91 | 263 | 0.0 | 3.5 | 0.00 | 0.01 | 0.01 | 51 | 1008.7 |
| 20260509222211 | 90 | 263 | 0.9 | 6.1 | 0.00 | 0.01 | 0.01 | 48 | 1008.6 |
| 20260509221722 | 90 | 264 | 0.9 | 6.1 | 0.00 | 0.01 | 0.01 | 48 | 1008.6 |
| 20260509221200 | 92 | 323 | 0.9 | 4.3 | 0.00 | 0.01 | 0.01 | 50 | 1008.7 |
| 20260509220700 | 90 | 336 | 0.9 | 3.5 | 0.00 | 0.01 | 0.01 | 51 | 1008.7 |
| 20260509220227 | 89 | 30 | 0.0 | 0.9 | 0.00 | 0.01 | 0.01 | 52 | 1008.8 |
| 20260509215717 | 88 | 154 | 0.0 | 0.9 | 0.00 | 0.01 | 0.01 | 55 | 1008.8 |
| 20260509215133 | 88 | 154 | 0.0 | 3.5 | 0.00 | 0.01 | 0.01 | 53 | 1008.7 |
| 20260509214743 | 89 | 154 | 0.0 | 3.5 | 0.00 | 0.01 | 0.01 | 52 | 1008.7 |
| 20260509214220 | 89 | 154 | 0.9 | 7.8 | 0.00 | 0.01 | 0.01 | 53 | 1008.9 |
| 20260509213631 | 90 | 161 | 4.3 | 7.8 | 0.00 | 0.01 | 0.01 | 51 | 1008.8 |
| 20260509213143 | 90 | 255 | 3.5 | 6.1 | 0.00 | 0.01 | 0.01 | 52 | 1008.9 |
| 20260509212707 | 90 | 200 | 4.3 | 6.1 | 0.00 | 0.01 | 0.01 | 49 | 1008.9 |
| 20260509212140 | 90 | 177 | 0.0 | 7.0 | 0.00 | 0.01 | 0.01 | 51 | 1008.9 |
| 20260509211653 | 90 | 238 | 0.9 | 8.7 | 0.00 | 0.01 | 0.01 | 54 | 1008.9 |
| 20260509211148 | 90 | 246 | 1.7 | 8.7 | 0.00 | 0.01 | 0.01 | 54 | 1008.9 |
| 20260509210647 | 89 | 167 | 1.7 | 7.8 | 0.00 | 0.01 | 0.01 | 53 | 1009.0 |
| 20260509205720 | 89 | 235 | 0.0 | 8.7 | 0.00 | 0.01 | 0.01 | 53 | 1009.1 |
| 20260509205216 | 89 | 223 | 5.2 | 8.7 | 0.00 | 0.01 | 0.01 | 54 | 1009.2 |
| 20260509204239 | 90 | 299 | 1.7 | 5.2 | 0.00 | 0.01 | 0.01 | 54 | 1009.5 |
| 20260509203637 | 89 | 277 | 2.6 | 8.7 | 0.00 | 0.01 | 0.01 | 52 | 1009.5 |
| 20260509203138 | 88 | 241 | 5.2 | 8.7 | 0.00 | 0.01 | 0.01 | 54 | 1009.5 |
| 20260509202635 | 87 | 176 | 3.5 | 7.0 | 0.00 | 0.01 | 0.01 | 56 | 1009.6 |
| 20260509202142 | 88 | 163 | 0.9 | 10.4 | 0.00 | 0.01 | 0.01 | 55 | 1009.6 |
| 20260509201706 | 89 | 165 | 5.2 | 10.4 | 0.00 | 0.01 | 0.01 | 54 | 1009.6 |
| 20260509201221 | 90 | 226 | 2.6 | 6.1 | 0.00 | 0.01 | 0.01 | 53 | 1009.6 |
| 20260509200146 | 88 | 232 | 2.6 | 10.4 | 0.00 | 0.01 | 0.01 | 59 | 1009.9 |
| 20260509195659 | 88 | 222 | 5.2 | 11.3 | 0.00 | 0.01 | 0.01 | 56 | 1009.8 |
| 20260509195213 | 88 | 221 | 6.1 | 11.3 | 0.00 | 0.01 | 0.01 | 56 | 1010.0 |
| 20260509194714 | 89 | 242 | 2.6 | 10.4 | 0.00 | 0.01 | 0.01 | 57 | 1010.1 |
| 20260509194210 | 88 | 173 | 3.5 | 7.0 | 0.00 | 0.01 | 0.01 | 57 | 1010.2 |
| 20260509193721 | 87 | 193 | 4.3 | 12.2 | 0.00 | 0.01 | 0.01 | 57 | 1010.4 |
| 20260509193241 | 88 | 207 | 3.5 | 12.2 | 0.00 | 0.01 | 0.01 | 57 | 1010.5 |
| 20260509192630 | 88 | 198 | 7.0 | 11.3 | 0.00 | 0.01 | 0.01 | 57 | 1010.6 |
| 20260509192158 | 88 | 222 | 1.7 | 7.8 | 0.00 | 0.01 | 0.01 | 58 | 1010.6 |
| 20260509191709 | 88 | 203 | 5.2 | 7.8 | 0.00 | 0.01 | 0.01 | 59 | 1010.7 |
| 20260509191221 | 87 | 209 | 6.1 | 7.8 | 0.00 | 0.01 | 0.01 | 59 | 1010.8 |
| 20260509190625 | 86 | 269 | 0.9 | 7.8 | 0.00 | 0.01 | 0.01 | 60 | 1010.8 |
| 20260509190154 | 87 | 300 | 5.2 | 7.8 | 0.00 | 0.01 | 0.01 | 60 | 1010.8 |
| 20260509185130 | 87 | 255 | 3.5 | 8.7 | 0.00 | 0.01 | 0.01 | 60 | 1010.8 |
| 20260509184653 | 86 | 288 | 3.5 | 7.0 | 0.00 | 0.01 | 0.01 | 62 | 1010.9 |
| 20260509183632 | 86 | 274 | 5.2 | 10.4 | 0.00 | 0.01 | 0.01 | 62 | 1011.0 |
| 20260509183154 | 86 | 219 | 4.3 | 9.6 | 0.00 | 0.01 | 0.01 | 61 | 1011.0 |
| 20260509182706 | 86 | 242 | 4.3 | 10.4 | 0.00 | 0.01 | 0.01 | 62 | 1011.0 |
| 20260509182218 | 86 | 228 | 3.5 | 10.4 | 0.00 | 0.01 | 0.01 | 61 | 1011.1 |
| 20260509181719 | 86 | 171 | 4.3 | 10.4 | 0.00 | 0.01 | 0.01 | 62 | 1011.2 |
| 20260509181214 | 86 | 232 | 2.6 | 7.8 | 0.00 | 0.01 | 0.01 | 61 | 1011.2 |
| 20260509180708 | 85 | 282 | 3.5 | 8.7 | 0.00 | 0.01 | 0.01 | 64 | 1011.3 |
| 20260509180202 | 84 | 181 | 2.6 | 8.7 | 0.00 | 0.01 | 0.01 | 64 | 1011.2 |
| 20260509175714 | 84 | 254 | 1.7 | 7.8 | 0.00 | 0.01 | 0.01 | 67 | 1011.4 |
| 20260509175136 | 84 | 238 | 2.6 | 7.8 | 0.00 | 0.01 | 0.01 | 68 | 1011.4 |
| 20260509174653 | 83 | 263 | 3.5 | 7.0 | 0.00 | 0.01 | 0.01 | 68 | 1011.5 |
| 20260509173731 | 85 | 202 | 3.5 | 7.8 | 0.00 | 0.01 | 0.01 | 65 | 1011.6 |
| 20260509173123 | 84 | 290 | 2.6 | 7.0 | 0.00 | 0.01 | 0.01 | 69 | 1011.7 |
| 20260509172637 | 84 | 217 | 0.9 | 8.7 | 0.00 | 0.01 | 0.01 | 67 | 1011.8 |
| 20260509172154 | 83 | 260 | 1.7 | 10.4 | 0.00 | 0.01 | 0.01 | 71 | 1011.7 |
| 20260509171130 | 83 | 267 | 2.6 | 8.7 | 0.00 | 0.01 | 0.01 | 72 | 1011.8 |
| 20260509170625 | 82 | 272 | 6.1 | 8.7 | 0.00 | 0.01 | 0.01 | 72 | 1011.7 |
| 20260509170141 | 81 | 265 | 2.6 | 7.8 | 0.00 | 0.01 | 0.01 | 73 | 1011.9 |
| 20260509165625 | 82 | 232 | 2.6 | 6.1 | 0.00 | 0.01 | 0.01 | 72 | 1011.9 |
| 20260509165138 | 82 | 223 | 3.5 | 7.0 | 0.00 | 0.01 | 0.01 | 73 | 1011.9 |
| 20260509164647 | 82 | 243 | 4.3 | 7.0 | 0.00 | 0.01 | 0.01 | 74 | 1011.9 |
| 20260509163638 | 81 | 300 | 2.6 | 5.2 | 0.00 | 0.01 | 0.01 | 74 | 1011.9 |
| 20260509163156 | 80 | 271 | 0.9 | 7.8 | 0.00 | 0.01 | 0.01 | 82 | 1012.0 |
| 20260509162720 | 79 | 271 | 5.2 | 7.8 | 0.01 | 0.01 | 0.01 | 80 | 1012.0 |
| 20260509162209 | 80 | 340 | 0.0 | 5.2 | 0.01 | 0.01 | 0.01 | 80 | 1012.1 |
| 20260509161722 | 79 | 153 | 0.9 | 3.5 | 0.01 | 0.01 | 0.01 | 81 | 1012.1 |
| 20260509161140 | 79 | 153 | 1.7 | 3.5 | 0.01 | 0.01 | 0.01 | 80 | 1012.1 |
| 20260509160653 | 80 | 169 | 0.0 | 4.3 | 0.01 | 0.01 | 0.01 | 82 | 1012.0 |
| 20260509155642 | 78 | 178 | 0.9 | 7.0 | 0.01 | 0.01 | 0.01 | 86 | 1012.0 |
| 20260509155155 | 77 | 166 | 4.3 | 8.7 | 0.01 | 0.01 | 0.01 | 88 | 1012.1 |
| 20260509154126 | 76 | 217 | 3.5 | 10.4 | 0.01 | 0.01 | 0.01 | 92 | 1012.0 |
| 20260509153640 | 75 | 207 | 4.3 | 12.2 | 0.01 | 0.01 | 0.01 | 93 | 1011.9 |
| 20260509153202 | 74 | 138 | 7.8 | 12.2 | 0.01 | 0.01 | 0.01 | 95 | 1011.7 |
| 20260509152726 | 74 | 138 | 3.5 | 7.0 | 0.00 | 0.00 | 0.00 | 95 | 1012.0 |
| 20260509152201 | 73 | 188 | 5.2 | 7.0 | 0.00 | 0.00 | 0.00 | 95 | 1012.4 |
| 20260509151654 | 74 | 144 | 2.6 | 7.0 | 0.00 | 0.00 | 0.00 | 95 | 1012.5 |
| 20260509150642 | 73 | 167 | 3.5 | 5.2 | 0.00 | 0.00 | 0.00 | 96 | 1012.3 |
| 20260509150155 | 73 | 168 | 0.0 | 4.3 | 0.00 | 0.00 | 0.00 | 96 | 1012.6 |
| 20260509145150 | 73 | 184 | 2.6 | 4.3 | 0.00 | 0.00 | 0.00 | 96 | 1012.9 |
| 20260509144643 | 73 | 184 | 2.6 | 4.3 | 0.00 | 0.00 | 0.00 | 96 | 1012.7 |
| 20260509143634 | 72 | 164 | 1.7 | 5.2 | 0.00 | 0.00 | 0.00 | 96 | 1012.8 |
| 20260509143144 | 72 | 144 | 3.5 | 5.2 | 0.00 | 0.00 | 0.00 | 96 | 1012.8 |
| 20260509142705 | 72 | 127 | 3.5 | 5.2 | 0.00 | 0.00 | 0.00 | 96 | 1012.8 |
| 20260509142158 | 72 | 57 | 1.7 | 4.3 | 0.00 | 0.00 | 0.00 | 96 | 1012.6 |
| 20260509141710 | 72 | 20 | 0.9 | 2.6 | 0.00 | 0.00 | 0.00 | 96 | 1012.4 |
| 20260509141215 | 72 | 19 | 0.9 | 3.5 | 0.00 | 0.00 | 0.00 | 96 | 1012.1 |
| 20260509140225 | 73 | 19 | 0.0 | 0.0 | 0.00 | 0.00 | 0.00 | 97 | 1011.6 |
| 20260509135659 | 72 | 19 | 0.0 | 0.0 | 0.00 | 0.00 | 0.00 | 97 | 1011.4 |
| 20260509135154 | 72 | 19 | 0.0 | 1.7 | 0.00 | 0.00 | 0.00 | 96 | 1011.4 |
| 20260509134144 | 72 | 19 | 0.0 | 1.7 | 0.00 | 0.00 | 0.00 | 97 | 1011.6 |
| 20260509133655 | 72 | 136 | 0.0 | 0.0 | 0.00 | 0.00 | 0.00 | 97 | 1011.7 |
| 20260509133152 | 72 | 135 | 0.0 | 0.0 | 0.00 | 0.00 | 0.00 | 97 | 1011.7 |
| 20260509132645 | 72 | 135 | 0.0 | 0.0 | 0.00 | 0.00 | 0.00 | 96 | 1012.0 |
| 20260509132141 | 72 | 135 | 0.0 | 1.7 | 0.00 | 0.00 | 0.00 | 96 | 1011.9 |
| 20260509131642 | 72 | 136 | 0.9 | 1.7 | 0.00 | 0.00 | 0.00 | 96 | 1011.9 |
| 20260509131138 | 72 | 136 | 0.0 | 4.3 | 0.00 | 0.00 | 0.00 | 96 | 1011.8 |
| 20260509130129 | 72 | 69 | 0.9 | 3.5 | 0.00 | 0.00 | 0.00 | 97 | 1011.7 |
| 20260509125710 | 72 | 91 | 0.0 | 3.5 | 0.00 | 0.00 | 0.00 | 96 | 1011.8 |
| 20260509125204 | 72 | 92 | 1.7 | 5.2 | 0.00 | 0.00 | 0.00 | 96 | 1011.5 |
| 20260509124706 | 72 | 69 | 2.6 | 5.2 | 0.00 | 0.00 | 0.00 | 96 | 1011.6 |
| 20260509124219 | 72 | 360 | 0.0 | 3.5 | 0.00 | 0.00 | 0.00 | 96 | 1011.7 |
| 20260509123724 | 72 | 360 | 0.0 | 5.2 | 0.00 | 0.00 | 0.00 | 96 | 1011.7 |
| 20260509123216 | 72 | 360 | 1.7 | 5.2 | 0.00 | 0.00 | 0.00 | 96 | 1011.6 |
| 20260509122630 | 72 | 360 | 1.7 | 5.2 | 0.00 | 0.00 | 0.00 | 96 | 1011.9 |
| 20260509122129 | 72 | 40 | 1.7 | 5.2 | 0.00 | 0.00 | 0.00 | 96 | 1011.6 |
| 20260509121652 | 72 | 31 | 2.6 | 5.2 | 0.00 | 0.00 | 0.00 | 96 | 1011.7 |
| 20260509120631 | 72 | 88 | 3.5 | 5.2 | 0.00 | 0.00 | 0.00 | 96 | 1011.6 |
| 20260509120155 | 72 | 46 | 0.9 | 5.2 | 0.00 | 0.00 | 0.00 | 96 | 1011.7 |
| 20260509115704 | 72 | 38 | 2.6 | 6.1 | 0.00 | 0.00 | 0.00 | 96 | 1011.8 |
| 20260509115216 | 72 | 5 | 1.7 | 7.8 | 0.00 | 0.00 | 0.00 | 96 | 1011.9 |
| 20260509114634 | 72 | 9 | 4.3 | 7.8 | 0.00 | 0.00 | 0.00 | 96 | 1012.0 |
| 20260509114152 | 72 | 39 | 4.3 | 10.4 | 0.00 | 0.00 | 0.00 | 96 | 1012.0 |
| 20260509113704 | 72 | 5 | 3.5 | 10.4 | 0.00 | 0.00 | 0.00 | 96 | 1012.0 |
| 20260509113227 | 72 | 13 | 3.5 | 9.6 | 0.00 | 0.00 | 0.00 | 96 | 1011.8 |
| 20260509112720 | 72 | 12 | 3.5 | 9.6 | 0.00 | 0.00 | 0.00 | 96 | 1011.8 |
| 20260509112221 | 72 | 342 | 2.6 | 7.0 | 0.00 | 0.00 | 0.00 | 96 | 1011.7 |
| 20260509111720 | 72 | 5 | 4.3 | 6.1 | 0.00 | 0.00 | 0.00 | 96 | 1011.5 |
| 20260509111239 | 72 | 347 | 2.6 | 5.2 | 0.00 | 0.00 | 0.00 | 96 | 1011.4 |
| 20260509110640 | 72 | 5 | 0.9 | 3.5 | 0.00 | 0.00 | 0.00 | 96 | 1011.1 |
| 20260509110154 | 72 | 5 | 0.0 | 3.5 | 0.00 | 0.00 | 0.00 | 96 | 1011.1 |